Location: Winnipauk Village
(41.1295°N, 73.4171°W)
Time: 17:26:55
(UTC+00:00)

N. Korean satellite - Pass Details

Date: 03 August 2021
Orbit: 448 x 499 km, 97.3° (Epoch: 16 September)

Event Time Altitude Azimuth Distance (km) Brightness Sun altitude
Rises 09:19:34 0° 29° (NNE) 2,542 11.4 -6.2°
Reaches altitude 10° 09:22:13 10° 51° (NE) 1,645 11.0 -5.8°
Maximum altitude 09:24:35 17° 93° (E) 1,265 9.6 -5.4°
Drops below altitude 10° 09:26:54 10° 135° (SE) 1,616 9.4 -5.0°
Sets 09:29:28 0° 157° (SSE) 2,474 10.1 -4.6°
